Flag Weather past 2 weeks in Gütersloh, North Rhine-Westphalia, Germany

Now
54 °F

Overcast.


Feels Like: 54 °F
Forecast: 51 / 67 °F
Wind: 2 mph from Southeast

Location: Bad Lippspringe

Current Time: Oct 31, 2014 at 1:02:09 AM

Latest Report: Oct 31, 2014 at 12:00 AM


Visibility: 6 mi

Pressure: 30.24 "Hg

Humidity: 90%

Dew point: 51 °F

Location of GüterslohLocation

Historic Weather in Gütersloh — Graph

°F

Gütersloh temperature yesterday

Maximum temperature yesterday: 56 °F (at 3:00 PM)
Minimum temperature yesterday: 49 °F (at 6:00 AM)
Average temperature yesterday: 52 °F

Past Weeks' High & Low Weather Summary

 TemperatureHumidityPressure
High74 °F (Oct 19, 3:00 PM)100% (Oct 30, 12:00 AM)30.30 "Hg (Oct 30, 12:00 AM)
Low32 °F (Oct 29, 6:00 AM)56% (Oct 19, 3:00 PM)29.44 "Hg (Oct 21, 6:00 PM)
Average52 °F85%30.05 "Hg
* Reported Oct 16 1:00 AM — Midnight between Oct 30 and Oct 31, Gütersloh, Weather by CustomWeather, © 2014

Note: Actual official high and low records may vary slightly from our data, if they occured in-between our weather recording intervals... More about our weather records

Advertising

Gütersloh weather history for previous 24 hours

 ConditionsComfort  
Time TempWeatherWind HumidityBarometerVisibility
12:00 AM
Oct 31
54 °FOvercast.2 mph90%30.24 "Hg6 mi
11:00 PM
Oct 30
53 °FFog.1 mph94%30.25 "Hg3 mi
10:00 PM53 °FOvercast.1 mph96%30.25 "Hg2 mi
9:00 PM53 °FFog.1 mph93%30.25 "Hg4 mi
8:00 PM54 °FFog.1 mph91%30.25 "Hg4 mi
7:00 PM55 °FFog.1 mph87%30.24 "Hg4 mi
6:00 PM55 °FFog.2 mph89%30.23 "Hg3 mi
5:00 PM55 °FFog.1 mph89%30.23 "Hg3 mi
4:00 PM56 °FFog.1 mph88%30.23 "Hg4 mi
3:00 PM56 °FOvercast.1 mph87%30.23 "Hg5 mi
2:00 PM56 °FOvercast.1 mph84%30.24 "Hg6 mi
1:00 PM55 °FOvercast.1 mph87%30.24 "Hg5 mi
12:00 PM55 °FOvercast.2 mph89%30.23 "Hg5 mi
11:00 AM53 °FFog.1 mph91%30.24 "Hg4 mi
10:00 AM52 °FLow clouds.1 mph92%30.23 "Hg8 mi
9:00 AM50 °FOvercast.1 mph97%30.23 "Hg3 mi
8:00 AM49 °FLow clouds.1 mph99%30.22 "Hg1 mi
7:00 AM49 °FDrizzle. Low clouds.No wind99%30.21 "Hg1 mi
6:00 AM49 °FFog.1 mph99%30.19 "Hg1 mi
5:00 AM49 °FLow clouds.1 mph99%30.18 "Hg1 mi
4:00 AM49 °FLow clouds.1 mph99%30.18 "Hg1 mi
3:00 AM49 °FDrizzle. Dense fog.1 mph99%30.18 "Hg0 mi
2:00 AM49 °FDrizzle. Low clouds.1 mph99%30.17 "Hg0 mi
1:00 AM49 °FLow clouds.1 mph100%30.16 "Hg0 mi
Weather by CustomWeather, © 2014

See weather overviewHow to use our weather pages